Theta_e
294 294 294 294 294 294 294 295 296 297 299 302 305 306 307 309 311 315 317 317 316 314 308 304 303 300 299 296 293 291 291 289 288 288 287 287 288 289 289 289 289 290 291
292 293 293 293 292 292 293 293 294 295 296 299 301 303 302 301 304 309 312 314 313 313 309 304 301 298 295 293 292 292 289 290 289 287 285 283 285 287 289 288 288 288 289
291 291 291 290 291 291 291 293 293 294 294 295 297 299 299 298 299 300 304 307 310 310 308 305 301 299 298 294 293 291 291 289 288 289 288 283 283 283 286 287 287 287 287
291 290 290 290 289 289 290 291 293 293 293 293 292 292 292 292 294 295 296 297 300 304 306 305 302 299 297 295 292 293 291 289 287 287 290 288 287 283 282 285 285 286 286
289 289 289 290 290 289 287 288 290 291 292 292 291 290 289 290 291 292 292 293 295 299 300 300 302 299 297 295 294 293 290 289 289 288 286 286 286 286 283 280 282 284 285
288 289 290 289 288 288 287 287 287 288 290 290 289 289 289 289 289 289 289 290 291 293 293 295 296 298 298 295 294 294 293 292 289 288 287 287 286 284 284 281 280 281 282
287 287 287 287 286 285 285 287 285 285 286 287 287 286 287 288 288 288 288 287 288 289 289 289 290 292 294 293 292 290 289 290 291 290 290 290 288 286 286 284 281 281 282
287 287 286 286 286 285 285 284 284 284 285 285 285 285 285 285 285 285 286 286 287 287 288 288 288 289 290 291 291 289 288 288 289 290 290 290 290 287 286 286 282 280 280
285 287 286 285 285 285 284 283 283 283 283 284 284 284 284 283 282 282 283 284 284 286 286 286 286 287 287 287 288 287 286 286 286 288 288 289 289 287 287 286 284 284 280
285 285 285 284 284 284 284 284 284 282 282 283 284 284 284 283 282 282 281 281 283 283 283 284 285 285 285 285 285 285 285 285 285 286 285 287 287 287 287 288 285 284 288
283 284 283 283 283 284 284 283 283 284 283 283 284 284 284 283 282 280 281 281 281 282 282 283 282 282 283 284 284 284 284 284 285 285 284 285 285 287 288 284 285 286 283
282 286 285 284 284 284 284 283 283 283 284 284 283 283 283 283 281 281 280 280 279 280 281 282 281 282 282 282 282 283 283 284 284 285 284 285 286 284 286 287 286 286 284
281 282 282 281 280 280 281 280 281 282 283 283 282 282 280 280 281 281 281 281 281 280 280 280 280 280 281 281 281 281 282 283 284 285 285 285 285 284 285 284 286 287 286
282 279 279 279 280 280 280 280 280 280 281 280 279 279 278 279 280 279 279 279 280 279 279 279 279 280 280 281 281 281 282 282 283 283 284 285 285 285 285 285 285 286 286
280 280 279 279 279 279 280 281 281 281 280 279 279 279 279 279 279 278 278 278 278 279 278 278 279 279 279 280 279 280 281 281 282 283 283 284 285 286 287 285 285 285 285
280 279 279 280 280 280 280 281 280 280 280 278 278 278 278 279 278 279 279 279 278 278 278 277 277 276 278 281 282 282 280 281 281 281 283 283 283 285 288 289 290 288 285
279 279 279 280 280 280 280 279 279 278 276 275 275 276 276 277 277 277 277 276 276 276 275 276 276 276 276 280 281 281 279 279 279 280 281 282 283 283 284 286 289 289 290
280 280 279 279 279 280 278 278 278 276 276 274 273 273 275 273 274 273 273 273 273 272 273 273 274 274 275 279 279 280 277 277 277 278 279 280 281 282 283 283 283 284 285
279 279 279 280 278 276 276 276 275 275 274 273 273 273 271 269 269 268 268 269 269 268 268 270 270 270 271 275 276 276 275 275 275 276 276 277 278 282 284 282 281 282 283
280 279 279 277 276 274 274 273 272 271 270 271 271 270 269 266 266 266 265 265 265 266 266 266 266 266 266 270 272 273 271 270 272 273 275 277 277 280 282 281 281 280 281
279 277 276 275 273 273 272 270 270 268 269 269 268 266 266 264 263 263 264 263 262 263 262 263 263 264 265 266 270 272 271 270 270 271 272 274 278 280 281 283 282 282 283
276 275 274 273 272 272 269 268 267 269 266 265 264 263 262 262 263 261 261 261 261 260 260 260 261 263 265 267 269 271 272 272 268 268 270 272 276 278 281 281 284 286 286
275 273 270 270 270 267 267 265 266 265 264 259 258 259 260 261 261 260 259 260 260 260 260 261 260 261 264 264 268 270 271 271 268 269 270 273 274 276 279 281 283 283 283
271 269 266 264 263 264 266 263 263 263 256 255 259 261 260 259 260 260 260 259 259 259 259 260 260 261 263 265 266 265 265 268 268 269 268 269 272 274 276 276 281 282 282
269 267 265 264 263 264 262 260 262 258 257 258 260 260 260 259 259 260 259 260 262 263 263 264 265 265 265 267 271 272 271 270 270 268 266 266 268 270 271 272 278 279 280
267 265 263 262 260 258 258 258 255 254 255 258 260 259 259 259 259 259 259 264 267 268 270 271 270 268 272 273 274 274 275 275 276 270 268 267 267 268 269 271 274 275 276
Wind_Speed
10 13 14 15 14 16 17 16 15 14 10 5 4 4 3 3 3 2 3 3 4 6 6 4 6 6 8 8 6 4 5 2 3 4 2 2 2 4 4 4 5 5 5
12 13 14 14 14 14 14 16 15 15 11 7 4 4 3 2 3 4 5 5 2 4 5 5 5 6 5 6 7 6 3 3 6 5 3 2 4 3 4 4 4 6 4
11 12 13 12 12 15 13 14 14 14 14 12 8 6 4 4 5 5 4 5 5 1 3 5 4 4 6 7 8 6 8 6 6 6 6 3 6 2 1 5 4 5 4
11 11 10 12 13 12 11 12 14 15 14 14 10 10 5 6 4 4 4 5 8 5 3 2 3 5 4 5 6 6 6 5 6 2 7 1 4 4 1 2 4 5 6
9 10 10 10 8 7 9 9 12 14 14 15 13 9 10 5 4 7 10 11 10 8 7 3 3 3 4 5 6 5 6 4 5 6 2 2 1 1 3 4 4 2 5
7 8 8 7 7 8 8 9 11 12 13 13 14 14 13 11 10 10 9 8 7 7 11 11 7 5 3 5 5 7 8 9 6 5 5 5 5 5 4 2 4 4 4
8 7 8 8 8 9 9 9 10 12 12 13 13 13 13 12 11 10 8 9 8 7 11 10 8 6 6 5 4 5 6 8 9 11 8 9 6 3 3 3 3 4 4
6 7 7 7 7 7 7 8 8 10 9 9 10 10 11 7 7 8 7 6 6 6 7 7 7 8 7 6 5 3 4 6 7 11 10 9 9 5 5 5 5 1 3
6 6 6 6 6 6 6 6 7 8 8 8 7 8 8 8 7 7 6 5 6 8 9 8 8 7 7 7 7 4 5 6 6 8 9 9 7 5 6 4 5 6 6
5 5 6 6 5 5 4 5 6 6 6 6 6 5 6 5 6 6 6 6 6 7 8 8 9 10 8 7 6 5 6 6 5 6 7 9 6 7 6 8 5 4 11
6 5 5 6 5 4 4 4 3 4 4 4 4 5 5 4 4 4 5 7 6 7 8 8 7 9 10 9 7 7 6 7 9 7 7 10 7 9 8 5 5 9 5
7 5 6 6 6 5 5 4 4 3 2 2 0 2 4 5 6 6 6 6 7 6 7 7 7 8 8 9 8 9 7 7 8 10 9 10 7 9 10 8 11 10 7
7 6 6 5 5 5 4 4 4 4 3 2 1 3 3 4 5 6 7 8 8 9 9 8 8 8 7 8 10 9 9 9 10 10 10 12 9 11 9 9 11 10 8
8 7 5 5 4 3 2 2 1 1 2 2 2 4 5 5 6 6 7 7 8 8 9 9 10 10 10 10 10 10 10 10 10 10 11 11 11 13 12 10 12 11 10
8 8 7 7 5 4 4 3 3 3 2 3 5 6 6 7 8 8 9 8 7 9 10 12 11 11 11 10 10 11 12 12 13 12 11 12 14 18 17 10 11 10 11
6 7 8 8 8 7 6 3 1 2 2 4 6 6 8 10 10 11 12 12 13 13 12 13 13 14 11 22 26 23 15 15 15 16 14 12 14 17 24 25 27 20 13
4 5 8 7 5 5 4 1 1 2 2 3 5 7 8 10 11 11 12 14 16 16 17 17 16 18 17 25 27 28 16 17 17 17 16 15 12 14 13 19 25 27 30
6 6 4 3 6 3 3 5 5 3 3 4 5 5 6 6 9 12 14 16 15 17 17 18 18 18 18 31 32 31 19 17 18 18 18 19 19 17 15 14 16 17 17
5 4 4 4 5 6 5 4 1 2 2 6 6 5 6 9 12 13 14 14 15 16 17 17 19 19 21 31 34 31 19 18 20 19 20 20 21 26 30 19 18 17 18
4 6 6 4 6 4 4 3 1 1 4 4 6 9 9 8 12 14 15 14 13 16 14 17 17 19 20 27 32 28 15 19 16 19 20 29 29 35 34 22 18 19 20
7 6 6 5 4 3 4 4 3 4 3 5 7 7 8 10 12 13 12 14 15 15 15 17 15 16 17 17 28 28 16 14 15 15 15 15 30 34 35 34 20 22 18
6 5 5 3 3 5 4 3 4 5 4 5 7 9 9 8 9 12 13 13 14 15 15 16 14 11 13 20 23 27 28 26 17 18 15 17 33 36 36 31 32 32 28
6 4 4 3 3 2 2 3 5 6 6 4 7 8 9 9 9 11 12 11 12 12 13 12 13 13 12 12 27 30 30 29 20 15 23 37 38 39 33 37 37 30 15
5 3 4 2 0 2 0 3 5 5 3 5 8 8 9 10 9 8 10 10 11 11 12 12 14 14 12 11 11 12 15 25 23 25 19 22 27 32 30 23 22 15 13
4 3 3 1 2 1 2 4 6 3 6 7 9 9 8 9 10 9 11 10 13 14 14 13 13 15 14 13 25 24 15 13 16 18 14 13 12 12 12 14 11 9 11
3 2 1 1 3 2 4 6 5 3 5 8 8 8 9 8 9 10 11 22 25 28 30 32 25 15 28 34 34 33 33 33 32 15 13 13 12 12 12 12 12 9 12
Wind_Direction
61 46 37 31 26 23 18 16 21 12 23 11 11 21 20 4 9 12 133 148 157 160 160 174 168 163 174 178 172 142 170 171 157 99 3 325 246 212 205 196 191 190 188
63 48 42 32 28 28 26 23 17 19 21 22 3 37 42 33 29 356 27 40 143 180 164 171 183 170 148 167 170 161 147 181 185 148 123 227 309 272 227 217 203 208 190
71 55 43 34 33 29 18 27 26 25 23 21 26 15 18 21 16 3 3 2 23 151 191 184 170 180 183 189 193 181 168 192 215 232 148 129 224 144 217 232 220 204 203
72 66 51 44 36 25 20 23 25 30 26 22 37 50 45 26 348 358 3 355 352 349 19 281 223 183 190 197 197 194 191 143 190 270 245 245 145 179 240 278 227 214 218
87 79 67 52 39 34 27 21 30 33 29 32 30 32 38 27 17 19 14 6 1 351 340 340 290 221 199 214 203 194 206 188 177 203 175 177 233 117 135 209 250 267 217
77 69 61 54 41 26 30 33 38 35 33 34 27 31 38 29 27 19 19 5 1 6 11 348 323 299 247 216 211 217 215 216 218 202 197 190 182 200 174 165 216 203 243
74 67 60 42 39 34 28 31 32 35 30 34 35 27 26 24 28 23 19 11 2 2 354 347 345 323 304 273 238 232 223 217 225 226 226 229 220 178 181 143 186 201 227
94 88 80 72 51 41 43 40 33 36 32 39 35 25 24 30 24 17 9 8 2 347 341 339 338 329 339 320 289 247 247 241 230 229 234 238 234 198 190 184 153 217 246
98 97 84 84 80 76 66 59 37 25 27 23 30 29 29 19 8 10 7 355 351 353 349 344 335 334 345 338 322 299 278 260 249 240 235 234 240 231 225 198 182 187 223
130 127 121 115 98 89 89 76 75 60 36 35 24 15 4 9 5 355 1 1 341 344 341 342 345 340 341 342 340 319 304 288 270 258 245 246 238 234 224 235 219 213 239
165 155 132 119 111 95 87 108 103 81 58 34 21 0 345 4 349 340 339 337 327 328 336 332 335 337 342 338 333 313 298 297 290 274 253 256 238 250 245 220 221 233 202
160 149 137 145 154 159 158 142 139 145 148 173 47 3 319 335 334 328 323 323 318 316 315 318 319 323 330 324 323 311 301 289 282 282 275 263 260 251 249 243 241 236 211
180 167 155 158 157 157 153 135 133 147 156 111 41 335 303 323 311 311 303 312 308 307 315 313 299 300 294 299 300 297 296 291 282 277 267 273 262 259 254 241 247 243 237
175 166 171 172 176 183 196 191 236 12 353 328 318 320 320 320 313 287 278 277 276 287 292 293 295 293 295 287 280 279 280 278 277 274 272 268 255 260 258 246 245 247 240
182 191 190 198 204 209 223 222 245 268 292 304 319 313 315 325 319 310 309 305 295 291 296 297 294 290 287 286 291 283 279 274 275 270 260 262 259 255 254 261 254 243 241
204 194 192 198 201 203 208 210 268 315 10 333 315 318 330 322 310 307 307 307 308 308 301 294 293 291 288 290 291 291 287 282 278 276 270 262 258 255 253 249 251 245 241
207 197 218 220 201 175 158 206 341 31 24 338 324 321 310 305 306 310 313 312 309 307 302 298 295 291 286 286 291 294 291 288 281 276 275 273 262 254 250 251 250 247 245
226 239 225 164 141 145 83 78 50 27 349 317 300 295 303 314 323 318 311 308 305 303 301 297 296 294 290 293 296 295 289 284 280 279 277 270 268 262 255 250 242 239 235
239 220 162 143 131 98 86 91 82 351 324 307 312 344 341 319 312 304 302 302 301 298 296 294 295 295 294 301 301 300 294 285 282 280 274 272 273 269 264 258 250 245 240
219 163 151 116 105 86 81 85 54 339 304 330 329 320 314 302 300 299 299 295 290 289 292 291 291 292 293 299 298 298 289 286 286 282 277 273 269 269 264 258 253 249 243
153 126 113 121 112 97 61 24 345 311 325 329 312 305 300 298 292 291 294 294 292 289 289 287 288 287 287 290 294 295 288 284 281 276 273 268 268 270 268 261 248 245 251
154 141 134 121 88 76 56 338 303 322 319 305 300 296 290 284 290 288 290 290 289 288 289 289 288 284 284 284 289 291 292 291 290 287 286 283 283 279 273 267 259 256 251
161 136 133 121 79 90 120 284 302 310 309 293 285 284 287 288 287 291 294 295 289 290 291 291 291 288 281 274 277 282 285 283 280 276 277 281 282 283 278 273 263 255 248
167 136 100 54 310 202 245 248 290 298 291 278 292 295 298 296 289 295 292 291 289 288 288 286 283 281 277 272 267 260 260 263 268 268 270 267 270 265 273 284 259 241 239
142 123 128 237 265 254 266 273 284 284 303 301 301 300 294 294 297 289 288 282 281 282 285 287 289 294 292 289 289 296 295 283 262 251 248 252 257 261 271 284 266 235 230
115 77 196 258 269 282 292 275 273 275 289 303 308 304 301 299 300 298 292 290 295 299 300 301 301 296 295 300 299 297 295 292 290 272 269 270 261 262 272 271 274 247 241